Time,TemperatureF,DewpointF,PressureIn,WindDirection,WindDirectionDegrees,WindSpeedMPH,WindSpeedGustMPH,Humidity,HourlyPrecipIn,Conditions,Clouds,dailyrainin,SolarRadiationWatts/m^2,SoftwareType,DateUTC
2014-01-10 00:02:00,38.0,34.0,-100.00,WSW,245,10.0,30.0,87,0.01,,,0.43,0.000000,,2014-01-10 08:02:00,
2014-01-10 00:11:00,38.0,34.0,-100.00,WSW,245,10.0,30.0,87,0.01,,,0.43,0.000000,,2014-01-10 08:11:00,
2014-01-10 00:43:00,38.0,32.0,-100.00,WSW,242,15.0,39.0,80,0.01,,,0.40,0.000000,,2014-01-10 08:43:00,
2014-01-10 00:53:00,38.0,32.0,-100.00,WSW,242,15.0,39.0,80,0.01,,,0.40,0.000000,,2014-01-10 08:53:00,
2014-01-10 01:02:00,38.0,32.0,-100.00,WSW,242,15.0,39.0,80,0.01,,,0.40,0.000000,,2014-01-10 09:02:00,
2014-01-10 01:11:00,38.0,32.0,-100.00,WSW,242,15.0,39.0,80,0.01,,,0.40,0.000000,,2014-01-10 09:11:00,
2014-01-10 01:43:00,39.0,32.0,-100.00,WSW,249,15.0,41.0,76,0.00,,,0.40,0.000000,,2014-01-10 09:43:00,
2014-01-10 01:53:00,39.0,32.0,-100.00,WSW,249,15.0,41.0,76,0.00,,,0.40,0.000000,,2014-01-10 09:53:00,
2014-01-10 02:03:00,39.0,32.0,-100.00,WSW,249,15.0,41.0,76,0.00,,,0.40,0.000000,,2014-01-10 10:03:00,
2014-01-10 02:12:00,39.0,32.0,-100.00,WSW,249,15.0,41.0,76,0.00,,,0.40,0.000000,,2014-01-10 10:12:00,
2014-01-10 02:42:00,38.0,32.0,-100.00,WSW,243,15.0,33.0,80,0.00,,,0.40,0.000000,,2014-01-10 10:42:00,
2014-01-10 02:52:00,38.0,32.0,-100.00,WSW,243,15.0,33.0,80,0.00,,,0.40,0.000000,,2014-01-10 10:52:00,
2014-01-10 03:02:00,38.0,32.0,-100.00,WSW,243,15.0,33.0,80,0.00,,,0.40,0.000000,,2014-01-10 11:02:00,
2014-01-10 03:11:00,38.0,32.0,-100.00,WSW,243,15.0,33.0,80,0.00,,,0.40,0.000000,,2014-01-10 11:11:00,
2014-01-10 03:42:00,39.0,32.0,-100.00,WSW,255,11.0,39.0,75,0.00,,,0.40,0.000000,,2014-01-10 11:42:00,
2014-01-10 03:54:00,39.0,32.0,-100.00,WSW,255,11.0,39.0,75,0.00,,,0.40,0.000000,,2014-01-10 11:54:00,
2014-01-10 04:02:00,39.0,32.0,-100.00,WSW,255,11.0,39.0,75,0.00,,,0.40,0.000000,,2014-01-10 12:02:00,
2014-01-10 04:11:00,39.0,32.0,-100.00,WSW,255,11.0,39.0,75,0.00,,,0.40,0.000000,,2014-01-10 12:11:00,
2014-01-10 07:43:00,39.0,30.0,-100.00,West,263,10.0,35.0,70,-99.99,,,0.40,0.000000,,2014-01-10 15:43:00,
2014-01-10 07:53:00,39.0,30.0,-100.00,West,263,10.0,35.0,70,-99.99,,,0.40,0.000000,,2014-01-10 15:53:00,
2014-01-10 08:03:00,39.0,30.0,-100.00,West,263,10.0,35.0,70,-99.99,,,0.40,0.000000,,2014-01-10 16:03:00,
2014-01-10 08:13:00,39.0,30.0,-100.00,West,263,10.0,35.0,70,-99.99,,,0.40,0.000000,,2014-01-10 16:13:00,
2014-01-10 08:43:00,38.0,28.0,-100.00,West,270,7.0,30.0,67,0.00,,,0.40,4.000000,,2014-01-10 16:43:00,
2014-01-10 08:52:00,38.0,28.0,-100.00,West,270,7.0,30.0,67,0.00,,,0.40,4.000000,,2014-01-10 16:52:00,
2014-01-10 09:02:00,38.0,28.0,-100.00,West,270,7.0,30.0,67,0.00,,,0.40,4.000000,,2014-01-10 17:02:00,
2014-01-10 09:12:00,38.0,28.0,-100.00,West,270,7.0,30.0,67,0.00,,,0.40,4.000000,,2014-01-10 17:12:00,
2014-01-10 09:43:00,38.0,29.0,-100.00,West,269,8.0,33.0,70,0.00,,,0.40,34.000000,,2014-01-10 17:43:00,
2014-01-10 09:53:00,38.0,29.0,-100.00,West,269,8.0,33.0,70,0.00,,,0.40,34.000000,,2014-01-10 17:53:00,
2014-01-10 10:01:00,38.0,29.0,-100.00,West,269,8.0,33.0,70,0.00,,,0.40,34.000000,,2014-01-10 18:01:00,
2014-01-10 10:11:00,38.0,29.0,-100.00,West,269,8.0,33.0,70,0.00,,,0.40,34.000000,,2014-01-10 18:11:00,
2014-01-10 10:42:00,38.0,31.0,-100.00,WSW,242,7.0,21.0,77,0.00,,,0.40,64.000000,,2014-01-10 18:42:00,
2014-01-10 10:52:00,38.0,31.0,-100.00,WSW,242,7.0,21.0,77,0.00,,,0.40,64.000000,,2014-01-10 18:52:00,
2014-01-10 11:02:00,38.0,31.0,-100.00,WSW,242,7.0,21.0,77,0.00,,,0.40,64.000000,,2014-01-10 19:02:00,
2014-01-10 11:12:00,38.0,31.0,-100.00,WSW,242,7.0,21.0,77,0.00,,,0.40,64.000000,,2014-01-10 19:12:00,
2014-01-10 11:42:00,42.0,34.0,-100.00,SW,221,4.0,15.0,73,0.00,,,0.40,213.000000,,2014-01-10 19:42:00,
2014-01-10 11:52:00,42.0,34.0,-100.00,SW,221,4.0,15.0,73,0.00,,,0.40,213.000000,,2014-01-10 19:52:00,
2014-01-10 12:01:00,42.0,34.0,-100.00,SW,221,4.0,15.0,73,0.00,,,0.40,213.000000,,2014-01-10 20:01:00,
2014-01-10 12:11:00,42.0,34.0,-100.00,SW,221,4.0,15.0,73,0.00,,,0.40,213.000000,,2014-01-10 20:11:00,
2014-01-10 12:52:00,42.0,32.0,-100.00,SW,223,5.0,24.0,68,0.00,,,0.37,236.000000,,2014-01-10 20:52:00,
2014-01-10 13:03:00,42.0,32.0,-100.00,SW,223,5.0,24.0,68,0.00,,,0.37,236.000000,,2014-01-10 21:03:00,
2014-01-10 13:12:00,42.0,32.0,-100.00,SW,223,5.0,24.0,68,0.00,,,0.37,236.000000,,2014-01-10 21:12:00,
2014-01-10 13:44:00,44.0,32.0,-100.00,SW,223,5.0,18.0,63,0.00,,,0.27,338.000000,,2014-01-10 21:44:00,
2014-01-10 13:53:00,44.0,32.0,-100.00,SW,223,5.0,18.0,63,0.00,,,0.27,338.000000,,2014-01-10 21:53:00,
2014-01-10 14:03:00,44.0,32.0,-100.00,SW,223,5.0,18.0,63,0.00,,,0.27,338.000000,,2014-01-10 22:03:00,
2014-01-10 14:12:00,44.0,32.0,-100.00,SW,223,5.0,18.0,63,0.00,,,0.27,338.000000,,2014-01-10 22:12:00,
2014-01-10 14:43:00,40.0,32.0,-100.00,SW,236,6.0,16.0,74,0.00,,,0.23,166.000000,,2014-01-10 22:43:00,
2014-01-10 14:53:00,40.0,32.0,-100.00,SW,236,6.0,16.0,74,0.00,,,0.23,166.000000,,2014-01-10 22:53:00,
2014-01-10 15:02:00,40.0,32.0,-100.00,SW,236,6.0,16.0,74,0.00,,,0.23,166.000000,,2014-01-10 23:02:00,
2014-01-10 15:12:00,40.0,32.0,-100.00,SW,236,6.0,16.0,74,0.00,,,0.23,166.000000,,2014-01-10 23:12:00,
2014-01-10 15:42:00,39.0,32.0,-100.00,SW,214,3.0,16.0,77,0.01,,,0.20,89.000000,,2014-01-10 23:42:00,
2014-01-10 15:52:00,39.0,32.0,-100.00,SW,214,3.0,16.0,77,0.01,,,0.20,89.000000,,2014-01-10 23:52:00,
2014-01-10 16:02:00,39.0,32.0,-100.00,SW,214,3.0,16.0,77,0.01,,,0.20,89.000000,,2014-01-11 00:02:00,
2014-01-10 16:12:00,39.0,32.0,-100.00,SW,214,3.0,16.0,77,0.01,,,0.20,89.000000,,2014-01-11 00:12:00,
2014-01-10 16:42:00,39.0,31.0,-100.00,SW,215,3.0,8.0,73,0.00,,,0.16,33.000000,,2014-01-11 00:42:00,
2014-01-10 16:52:00,39.0,31.0,-100.00,SW,215,3.0,8.0,73,0.00,,,0.16,33.000000,,2014-01-11 00:52:00,
2014-01-10 17:02:00,39.0,31.0,-100.00,SW,215,3.0,8.0,73,0.00,,,0.16,33.000000,,2014-01-11 01:02:00,
2014-01-10 17:11:00,39.0,31.0,-100.00,SW,215,3.0,8.0,73,0.00,,,0.16,33.000000,,2014-01-11 01:11:00,
2014-01-10 17:52:00,38.0,31.0,-100.00,SSW,213,2.0,10.0,75,0.00,,,0.14,2.000000,,2014-01-11 01:52:00,
2014-01-10 18:01:00,38.0,31.0,-100.00,SSW,213,2.0,10.0,75,0.00,,,0.14,2.000000,,2014-01-11 02:01:00,
2014-01-10 18:11:00,38.0,31.0,-100.00,SSW,213,2.0,10.0,75,0.00,,,0.14,2.000000,,2014-01-11 02:11:00,
2014-01-10 18:52:00,37.0,32.0,-100.00,SW,233,4.0,10.0,82,0.01,,,0.14,0.000000,,2014-01-11 02:52:00,
2014-01-10 19:02:00,37.0,32.0,-100.00,SW,233,4.0,10.0,82,0.01,,,0.14,0.000000,,2014-01-11 03:02:00,
2014-01-10 19:11:00,37.0,32.0,-100.00,SW,233,4.0,10.0,82,0.01,,,0.14,0.000000,,2014-01-11 03:11:00,
2014-01-10 19:43:00,35.0,33.0,-100.00,SW,221,2.0,10.0,94,0.05,,,0.16,0.000000,,2014-01-11 03:43:00,
2014-01-10 19:54:00,35.0,33.0,-100.00,SW,221,2.0,10.0,94,0.05,,,0.16,0.000000,,2014-01-11 03:54:00,
2014-01-10 20:03:00,35.0,33.0,-100.00,SW,221,2.0,10.0,94,0.05,,,0.16,0.000000,,2014-01-11 04:03:00,
2014-01-10 20:13:00,35.0,33.0,-100.00,SW,221,2.0,10.0,94,0.05,,,0.16,0.000000,,2014-01-11 04:13:00,
2014-01-10 20:43:00,36.0,34.0,-100.00,SSW,205,4.0,10.0,94,0.00,,,0.13,0.000000,,2014-01-11 04:43:00,
2014-01-10 20:53:00,36.0,34.0,-100.00,SSW,205,4.0,10.0,94,0.00,,,0.13,0.000000,,2014-01-11 04:53:00,
2014-01-10 21:03:00,36.0,34.0,-100.00,SSW,205,4.0,10.0,94,0.00,,,0.13,0.000000,,2014-01-11 05:03:00,
2014-01-10 21:12:00,36.0,34.0,-100.00,SSW,205,4.0,10.0,94,0.00,,,0.13,0.000000,,2014-01-11 05:12:00,
2014-01-10 21:43:00,38.0,36.0,-100.00,SSW,208,4.0,10.0,92,0.00,,,0.11,0.000000,,2014-01-11 05:43:00,
2014-01-10 21:53:00,38.0,36.0,-100.00,SSW,208,4.0,10.0,92,0.00,,,0.11,0.000000,,2014-01-11 05:53:00,
2014-01-10 22:02:00,38.0,36.0,-100.00,SSW,208,4.0,10.0,92,0.00,,,0.11,0.000000,,2014-01-11 06:02:00,
2014-01-10 22:12:00,38.0,36.0,-100.00,SSW,208,4.0,10.0,92,0.00,,,0.11,0.000000,,2014-01-11 06:12:00,
2014-01-10 22:43:00,39.0,35.0,-100.00,SSW,205,4.0,9.0,87,0.00,,,0.09,0.000000,,2014-01-11 06:43:00,
2014-01-10 22:52:00,39.0,35.0,-100.00,SSW,205,4.0,9.0,87,0.00,,,0.09,0.000000,,2014-01-11 06:52:00,
2014-01-10 23:02:00,39.0,35.0,-100.00,SSW,205,4.0,9.0,87,0.00,,,0.09,0.000000,,2014-01-11 07:02:00,
2014-01-10 23:11:00,39.0,35.0,-100.00,SSW,205,4.0,9.0,87,0.00,,,0.09,0.000000,,2014-01-11 07:11:00,
2014-01-10 23:42:00,39.0,36.0,-100.00,SW,214,2.0,8.0,90,0.00,,,0.08,0.000000,,2014-01-11 07:42:00,
2014-01-10 23:52:00,39.0,36.0,-100.00,SW,214,2.0,8.0,90,0.00,,,0.08,0.000000,,2014-01-11 07:52:00,